Location: Schommer Observatory
(40.5200°N, 74.4500°W)
Time: 18:19:47
(UTC-05:00)

Tiangong 1 - Pass Details

Date: 10 November 2017
Orbit: 284 x 308 km, 42.8° (Epoch: 21 November)

Event Time Altitude Azimuth Distance (km) Brightness Sun altitude
Exits shadow 06:03:57 10° 278° (W) 1,168 2.8 -7.0°
Reaches altitude 10° 06:04:01 10° 277° (W) 1,141 2.8 -7.0°
Maximum altitude 06:06:27 43° 204° (SSW) 427 1.2 -6.6°
Drops below altitude 10° 06:08:55 10° 130° (SE) 1,151 4.8 -6.1°
Sets 06:10:55 0° 123° (ESE) 1,976 6.5 -5.8°
